Location: Ladrillo (historical)
(32.8195°N, 117.2231°W)
Time: 05:01:38
(UTC+00:00)

Vanguard 3 - Pass Details

Date: 06 March 2021
Orbit: 508 x 3262 km, 33.3° (Epoch: 14 April)

Event Time Altitude Azimuth Distance (km) Brightness Sun altitude
Rises 19:21:07 0° 211° (SSW) 6,293 12.1 50.7°
Reaches altitude 10° 19:25:20 10° 204° (SSW) 5,577 12.0 51.0°
Maximum altitude 19:41:35 41° 141° (SE) 4,163 12.2 51.6°
Drops below altitude 10° 19:58:34 10° 80° (E) 5,867 11.6 51.8°
Sets 20:03:04 0° 74° (ENE) 6,642 11.7 51.8°
